Flag for Honduras Weather past 2 weeks in La Ceiba, Honduras

Now
77 °F

Passing clouds.


Feels Like: 78 °F
Forecast: 75 / 89 °F
Wind: 3 mph from Northeast

Location: La Ceiba Airport

Current Time: Aug 30, 2014 at 2:24:42 AM

Latest Report: Aug 30, 2014 at 12:00 AM


Visibility: N/A

Pressure: 29.86 "Hg

Humidity: 94%

Dew point: 75 °F

Location of La CeibaLocation

Historic Weather in La Ceiba — Graph

°F

La Ceiba temperature yesterday

Maximum temperature yesterday: 90 °F (at 3:00 PM)
Minimum temperature yesterday: 73 °F (at 12:00 AM)
Average temperature yesterday: 82 °F

Past Weeks' High & Low Weather Summary

 TemperatureHumidityPressure
High91 °F (Aug 17, 1:00 PM)100% (Aug 15, 3:00 AM)29.98 "Hg (Aug 15, 3:00 AM)
Low70 °F (Aug 22, 5:00 AM)55% (Aug 21, 8:00 AM)29.77 "Hg (Aug 25, 3:00 PM)
Average81 °F81%29.89 "Hg
* Reported Midnight between Aug 14 and Aug 15 — Midnight between Aug 29 and Aug 30, La Ceiba, Weather by CustomWeather, © 2014

Note: Actual official high and low records may vary slightly from our data, if they occured in-between our weather recording intervals... More about our weather records

Advertising

La Ceiba weather history for previous 24 hours

 ConditionsComfort  
Time TempWeatherWind HumidityBarometerVisibility
12:00 AM
Aug 30
77 °FPassing clouds.3 mph94%29.86 "HgN/A
11:00 PM
Aug 29
77 °FPassing clouds.No wind94%29.86 "HgN/A
10:00 PM77 °FPassing clouds.No wind94%29.86 "HgN/A
9:00 PM79 °FPassing clouds.2 mph94%29.86 "HgN/A
8:00 PM81 °FPassing clouds.No wind89%29.83 "HgN/A
7:00 PM81 °FPassing clouds.No wind89%29.80 "HgN/A
6:00 PM84 °FPartly sunny.8 mph79%29.77 "HgN/A
5:00 PM86 °FBroken clouds.12 mph75%29.77 "HgN/A
4:00 PM88 °FBroken clouds.9 mph75%29.77 "HgN/A
3:00 PM90 °FScattered clouds.10 mph67%29.77 "HgN/A
1:00 PM86 °FPartly sunny.6 mph75%29.83 "HgN/A
12:00 PM88 °FBroken clouds.6 mph75%29.86 "HgN/A
11:00 AM88 °FPartly sunny.6 mph70%29.86 "HgN/A
10:00 AM86 °FPartly sunny.7 mph75%29.89 "HgN/A
9:00 AM86 °FPartly sunny.5 mph70%29.89 "HgN/A
8:00 AM81 °FPartly sunny.2 mph79%29.86 "HgN/A
7:00 AM77 °FPartly sunny.No wind89%29.86 "HgN/A
6:00 AM73 °FPartly sunny.No wind94%29.86 "HgN/A
Weather by CustomWeather, © 2014

See weather overviewHow to use our weather pages